Volver al catálogo

COSMOS 2251 DEB

ActivoLEO
NORAD 37312·DEBRIS·🇷🇺 Russia

Lanzado Jun 16, 1993 desde Plesetsk Cosmodrome

Loading…

Próximos Pases (próximas 24 horas)

TLE

ActualizadoSource: Space-Track

Época: Sep 13, 2026, 02:28 UTC

1 37312U 93036BKC 26256.10327520  .00000888  00000-0  25165-3 0  9994
2 37312  74.0307  51.6607 0017212  89.5312 270.7819 14.46901698901311

Sigue COSMOS 2251 DEB en tiempo real con AllMySat

Download on the App Store